Time,TemperatureF,DewpointF,PressureIn,WindDirection,WindDirectionDegrees,WindSpeedMPH,WindSpeedGustMPH,Humidity,HourlyPrecipIn,Conditions,Clouds,dailyrainin,SolarRadiationWatts/m^2,SoftwareType,DateUTC
2013-01-07 00:13:00,35.8,33.0,30.13,NE,36,0.0,0.0,90,0.00,,,0.05,0,weatherlink.com 1.10,2013-01-07 08:13:00,
2013-01-07 00:28:00,36.2,34.0,30.13,NE,36,0.0,2.0,90,0.00,,,0.05,0,weatherlink.com 1.10,2013-01-07 08:28:00,
2013-01-07 00:43:00,36.5,34.0,30.13,NE,36,0.0,0.0,90,0.00,,,0.00,0,weatherlink.com 1.10,2013-01-07 08:43:00,
2013-01-07 00:58:00,36.0,33.0,30.12,NE,36,0.0,0.0,89,0.00,,,0.00,0,weatherlink.com 1.10,2013-01-07 08:58:00,
2013-01-07 01:13:00,35.5,33.0,30.12,NE,36,0.0,0.0,89,0.00,,,0.00,0,weatherlink.com 1.10,2013-01-07 09:13:00,
2013-01-07 01:28:00,35.0,32.0,30.12,NE,36,0.0,0.0,89,0.00,,,0.00,0,weatherlink.com 1.10,2013-01-07 09:28:00,
2013-01-07 01:43:00,34.6,32.0,30.13,NE,36,0.0,0.0,89,0.00,,,0.00,0,weatherlink.com 1.10,2013-01-07 09:43:00,
2013-01-07 01:58:00,34.4,32.0,30.13,NE,36,0.0,2.0,89,0.00,,,0.00,0,weatherlink.com 1.10,2013-01-07 09:58:00,
2013-01-07 02:13:00,35.3,32.0,30.12,NNE,27,0.0,3.0,89,0.00,,,0.00,0,weatherlink.com 1.10,2013-01-07 10:13:00,
2013-01-07 02:28:00,36.2,33.0,30.12,NNE,27,0.0,2.0,87,0.00,,,0.00,0,weatherlink.com 1.10,2013-01-07 10:28:00,
2013-01-07 02:43:00,36.6,33.0,30.12,NNE,27,0.0,1.0,85,0.00,,,0.00,0,weatherlink.com 1.10,2013-01-07 10:43:00,
2013-01-07 02:58:00,35.9,32.0,30.14,NNE,27,0.0,2.0,84,0.00,,,0.00,0,weatherlink.com 1.10,2013-01-07 10:58:00,
2013-01-07 03:13:00,36.0,31.0,30.14,NNE,32,0.0,4.0,83,0.00,,,0.00,0,weatherlink.com 1.10,2013-01-07 11:13:00,
2013-01-07 03:28:00,37.6,31.0,30.14,NE,44,0.0,3.0,77,0.00,,,0.00,0,weatherlink.com 1.10,2013-01-07 11:28:00,
2013-01-07 03:43:00,39.1,30.0,30.14,NE,45,0.0,3.0,70,0.00,,,0.00,0,weatherlink.com 1.10,2013-01-07 11:43:00,
2013-01-07 03:58:00,40.2,30.0,30.13,NE,45,0.0,3.0,67,0.00,,,0.00,0,weatherlink.com 1.10,2013-01-07 11:58:00,
2013-01-07 04:13:00,39.8,30.0,30.13,NE,45,1.0,2.0,67,0.00,,,0.00,0,weatherlink.com 1.10,2013-01-07 12:13:00,
2013-01-07 04:28:00,39.2,31.0,30.14,NE,45,0.0,1.0,71,0.00,,,0.00,0,weatherlink.com 1.10,2013-01-07 12:28:00,
2013-01-07 04:43:00,39.3,30.0,30.14,NE,45,1.0,2.0,70,0.00,,,0.00,0,weatherlink.com 1.10,2013-01-07 12:43:00,
2013-01-07 04:58:00,38.5,30.0,30.14,NE,45,0.0,1.0,72,0.00,,,0.00,0,weatherlink.com 1.10,2013-01-07 12:58:00,
2013-01-07 05:13:00,37.9,30.0,30.14,NE,45,0.0,1.0,72,0.00,,,0.00,0,weatherlink.com 1.10,2013-01-07 13:13:00,
2013-01-07 05:28:00,37.6,30.0,30.15,NE,45,0.0,1.0,73,0.00,,,0.00,0,weatherlink.com 1.10,2013-01-07 13:28:00,
2013-01-07 05:43:00,36.8,30.0,30.14,NE,45,2.0,2.0,76,0.00,,,0.00,0,weatherlink.com 1.10,2013-01-07 13:43:00,
2013-01-07 05:58:00,38.8,30.0,30.14,ENE,65,0.0,3.0,70,0.00,,,0.00,0,weatherlink.com 1.10,2013-01-07 13:58:00,
2013-01-07 06:13:00,39.3,30.0,30.14,ENE,65,0.0,2.0,69,0.00,,,0.00,0,weatherlink.com 1.10,2013-01-07 14:13:00,
2013-01-07 06:28:00,39.1,30.0,30.15,ENE,65,0.0,1.0,71,0.00,,,0.00,0,weatherlink.com 1.10,2013-01-07 14:28:00,
2013-01-07 06:43:00,38.2,30.0,30.16,ENE,65,0.0,2.0,73,0.00,,,0.00,0,weatherlink.com 1.10,2013-01-07 14:43:00,
2013-01-07 06:58:00,37.3,30.0,30.16,ENE,65,0.0,0.0,76,0.00,,,0.00,0,weatherlink.com 1.10,2013-01-07 14:58:00,
2013-01-07 07:13:00,37.0,30.0,30.17,ENE,65,0.0,0.0,77,0.00,,,0.00,0,weatherlink.com 1.10,2013-01-07 15:13:00,
2013-01-07 07:28:00,37.0,31.0,30.17,ENE,65,0.0,2.0,78,0.00,,,0.00,0,weatherlink.com 1.10,2013-01-07 15:28:00,
2013-01-07 07:43:00,37.6,31.0,30.17,NE,51,0.0,3.0,77,0.00,,,0.00,9,weatherlink.com 1.10,2013-01-07 15:43:00,
2013-01-07 07:58:00,39.1,31.0,30.16,NE,46,0.0,0.0,74,0.00,,,0.00,18,weatherlink.com 1.10,2013-01-07 15:58:00,
2013-01-07 08:13:00,39.6,32.0,30.17,NE,46,0.0,0.0,73,0.00,,,0.00,25,weatherlink.com 1.10,2013-01-07 16:13:00,
2013-01-07 08:28:00,39.9,32.0,30.17,NE,46,0.0,1.0,72,0.00,,,0.00,44,weatherlink.com 1.10,2013-01-07 16:28:00,
2013-01-07 08:43:00,40.5,32.0,30.16,NE,46,0.0,0.0,72,0.00,,,0.00,69,weatherlink.com 1.10,2013-01-07 16:43:00,
2013-01-07 08:58:00,40.9,32.0,30.16,NE,46,0.0,0.0,71,0.01,,,0.01,60,weatherlink.com 1.10,2013-01-07 16:58:00,
2013-01-07 09:13:00,41.3,33.0,30.19,NE,46,0.0,0.0,73,0.01,,,0.01,76,weatherlink.com 1.10,2013-01-07 17:13:00,
2013-01-07 09:28:00,41.9,34.0,30.19,NE,46,0.0,1.0,74,0.01,,,0.01,104,weatherlink.com 1.10,2013-01-07 17:28:00,
2013-01-07 09:43:00,42.5,35.0,30.21,NE,46,0.0,0.0,75,0.01,,,0.01,100,weatherlink.com 1.10,2013-01-07 17:43:00,
2013-01-07 09:59:00,43.8,33.0,30.22,NE,46,0.0,1.0,67,0.00,,,0.01,142,weatherlink.com 1.10,2013-01-07 17:59:00,
2013-01-07 10:14:00,46.0,33.0,30.22,NE,46,0.0,0.0,62,0.00,,,0.01,123,weatherlink.com 1.10,2013-01-07 18:14:00,
2013-01-07 10:29:00,46.8,34.0,30.22,NE,46,0.0,0.0,61,0.00,,,0.01,88,weatherlink.com 1.10,2013-01-07 18:29:00,
2013-01-07 10:44:00,48.2,34.0,30.22,NE,46,0.0,0.0,58,0.00,,,0.01,135,weatherlink.com 1.10,2013-01-07 18:44:00,
2013-01-07 10:59:00,49.8,35.0,30.21,NE,46,0.0,0.0,57,0.00,,,0.01,134,weatherlink.com 1.10,2013-01-07 18:59:00,
2013-01-07 11:14:00,50.4,35.0,30.21,NW,306,0.0,3.0,55,0.00,,,0.01,69,weatherlink.com 1.10,2013-01-07 19:14:00,
2013-01-07 11:29:00,49.8,36.0,30.20,NW,309,0.0,2.0,59,0.00,,,0.01,86,weatherlink.com 1.10,2013-01-07 19:29:00,
2013-01-07 11:44:00,51.0,37.0,30.20,NW,309,1.0,1.0,59,0.00,,,0.01,104,weatherlink.com 1.10,2013-01-07 19:44:00,
2013-01-07 11:59:00,51.1,37.0,30.18,NW,309,0.0,1.0,58,0.00,,,0.01,137,weatherlink.com 1.10,2013-01-07 19:59:00,
2013-01-07 12:14:00,52.8,38.0,30.17,NW,309,0.0,2.0,57,0.00,,,0.01,142,weatherlink.com 1.10,2013-01-07 20:14:00,
2013-01-07 12:29:00,52.2,38.0,30.16,NW,309,0.0,2.0,59,0.00,,,0.01,144,weatherlink.com 1.10,2013-01-07 20:29:00,
2013-01-07 12:44:00,52.6,39.0,30.16,NW,311,0.0,1.0,60,0.00,,,0.01,158,weatherlink.com 1.10,2013-01-07 20:44:00,
2013-01-07 13:03:00,52.8,37.0,30.16,North,360,1.0,2.0,56,0.00,,,0.01,163,weatherlink.com 1.10,2013-01-07 21:03:00,
2013-01-07 13:14:00,51.3,38.0,30.16,NW,310,0.0,2.0,61,0.00,,,0.01,165,weatherlink.com 1.10,2013-01-07 21:14:00,
2013-01-07 13:30:00,50.7,38.0,30.17,WNW,288,0.0,4.0,62,0.00,,,0.01,165,weatherlink.com 1.10,2013-01-07 21:30:00,
2013-01-07 13:45:00,49.8,38.0,30.18,NNW,346,2.0,3.0,64,0.00,,,0.01,142,weatherlink.com 1.10,2013-01-07 21:45:00,
2013-01-07 14:01:00,48.8,38.0,30.17,NNW,346,0.0,2.0,67,0.00,,,0.01,127,weatherlink.com 1.10,2013-01-07 22:01:00,
2013-01-07 14:15:00,48.5,38.0,30.17,NNW,346,0.0,0.0,67,0.00,,,0.01,127,weatherlink.com 1.10,2013-01-07 22:15:00,
2013-01-07 14:30:00,48.6,38.0,30.16,NNW,346,0.0,0.0,68,0.00,,,0.01,98,weatherlink.com 1.10,2013-01-07 22:30:00,
2013-01-07 14:45:00,48.8,39.0,30.18,NNW,346,0.0,1.0,69,0.00,,,0.01,128,weatherlink.com 1.10,2013-01-07 22:45:00,
2013-01-07 15:00:00,48.6,39.0,30.17,NNW,346,0.0,0.0,69,0.00,,,0.01,114,weatherlink.com 1.10,2013-01-07 23:00:00,
2013-01-07 15:15:00,48.3,39.0,30.17,NNW,346,0.0,0.0,70,0.00,,,0.01,76,weatherlink.com 1.10,2013-01-07 23:15:00,
2013-01-07 15:31:00,48.6,39.0,30.16,NNW,346,0.0,0.0,70,0.00,,,0.01,81,weatherlink.com 1.10,2013-01-07 23:31:00,
2013-01-07 15:45:00,49.2,40.0,30.16,NNW,346,0.0,0.0,71,0.00,,,0.01,72,weatherlink.com 1.10,2013-01-07 23:45:00,
2013-01-07 16:00:00,49.4,40.0,30.14,WNW,290,1.0,2.0,70,0.00,,,0.01,44,weatherlink.com 1.10,2013-01-08 00:00:00,
2013-01-07 16:15:00,49.2,40.0,30.16,NNW,347,0.0,2.0,70,0.00,,,0.01,32,weatherlink.com 1.10,2013-01-08 00:15:00,
2013-01-07 16:30:00,48.8,39.0,30.16,NNW,347,0.0,0.0,70,0.00,,,0.01,16,weatherlink.com 1.10,2013-01-08 00:30:00,
2013-01-07 16:45:00,48.3,40.0,30.16,NNW,347,0.0,0.0,72,0.00,,,0.01,5,weatherlink.com 1.10,2013-01-08 00:45:00,
2013-01-07 17:00:00,47.7,39.0,30.16,NNW,347,0.0,0.0,72,0.00,,,0.01,0,weatherlink.com 1.10,2013-01-08 01:00:00,
2013-01-07 17:15:00,47.1,39.0,30.16,NNW,347,0.0,0.0,73,0.00,,,0.01,0,weatherlink.com 1.10,2013-01-08 01:15:00,
2013-01-07 17:30:00,46.4,39.0,30.16,NNW,347,0.0,0.0,74,0.00,,,0.01,0,weatherlink.com 1.10,2013-01-08 01:30:00,
2013-01-07 17:45:00,45.5,38.0,30.16,NNW,347,0.0,0.0,75,0.00,,,0.01,0,weatherlink.com 1.10,2013-01-08 01:45:00,
2013-01-07 18:00:00,44.6,38.0,30.16,NNW,347,0.0,0.0,77,0.00,,,0.01,0,weatherlink.com 1.10,2013-01-08 02:00:00,
2013-01-07 18:15:00,43.9,37.0,30.16,NNW,347,0.0,0.0,78,0.00,,,0.01,0,weatherlink.com 1.10,2013-01-08 02:15:00,
2013-01-07 18:30:00,43.3,37.0,30.15,NNW,347,0.0,0.0,79,0.00,,,0.01,0,weatherlink.com 1.10,2013-01-08 02:30:00,
2013-01-07 18:45:00,42.6,37.0,30.15,NNW,347,0.0,0.0,80,0.00,,,0.01,0,weatherlink.com 1.10,2013-01-08 02:45:00,
2013-01-07 19:00:00,42.1,37.0,30.15,NNW,347,0.0,2.0,81,0.00,,,0.01,0,weatherlink.com 1.10,2013-01-08 03:00:00,
2013-01-07 19:16:00,42.2,37.0,30.16,NNE,26,0.0,0.0,83,0.00,,,0.01,0,weatherlink.com 1.10,2013-01-08 03:16:00,
2013-01-07 19:31:00,42.2,38.0,30.15,NNE,26,0.0,0.0,84,0.00,,,0.01,0,weatherlink.com 1.10,2013-01-08 03:31:00,
2013-01-07 19:46:00,42.2,38.0,30.14,NNE,26,0.0,0.0,84,0.00,,,0.01,0,weatherlink.com 1.10,2013-01-08 03:46:00,
2013-01-07 20:01:00,41.9,37.0,30.14,NNE,26,0.0,0.0,84,0.00,,,0.01,0,weatherlink.com 1.10,2013-01-08 04:01:00,
2013-01-07 20:16:00,41.6,37.0,30.16,NNE,26,0.0,0.0,84,0.00,,,0.01,0,weatherlink.com 1.10,2013-01-08 04:16:00,
2013-01-07 20:31:00,41.5,37.0,30.17,NNE,26,0.0,0.0,85,0.00,,,0.01,0,weatherlink.com 1.10,2013-01-08 04:31:00,
2013-01-07 20:46:00,41.9,38.0,30.16,NNE,26,0.0,0.0,86,0.00,,,0.01,0,weatherlink.com 1.10,2013-01-08 04:46:00,
2013-01-07 21:15:00,41.8,38.0,30.14,NNE,26,0.0,0.0,85,0.00,,,0.01,0,weatherlink.com 1.10,2013-01-08 05:15:00,
2013-01-07 21:31:00,41.3,37.0,30.15,NNE,26,0.0,0.0,85,0.00,,,0.01,0,weatherlink.com 1.10,2013-01-08 05:31:00,
2013-01-07 21:46:00,40.8,37.0,30.15,NNE,26,0.0,0.0,85,0.00,,,0.01,0,weatherlink.com 1.10,2013-01-08 05:46:00,
2013-01-07 22:01:00,40.8,37.0,30.14,NNE,26,0.0,0.0,86,0.00,,,0.01,0,weatherlink.com 1.10,2013-01-08 06:01:00,
2013-01-07 22:16:00,40.3,37.0,30.16,NNE,26,0.0,0.0,86,0.00,,,0.01,0,weatherlink.com 1.10,2013-01-08 06:16:00,
2013-01-07 22:31:00,40.2,36.0,30.16,NNE,26,0.0,1.0,86,0.00,,,0.01,0,weatherlink.com 1.10,2013-01-08 06:31:00,
2013-01-07 22:46:00,39.8,36.0,30.18,NNE,26,0.0,1.0,86,0.00,,,0.01,0,weatherlink.com 1.10,2013-01-08 06:46:00,
2013-01-07 23:01:00,39.8,36.0,30.18,NNE,26,0.0,0.0,87,0.00,,,0.01,0,weatherlink.com 1.10,2013-01-08 07:01:00,
2013-01-07 23:16:00,39.6,36.0,30.17,NNE,26,0.0,0.0,87,0.00,,,0.01,0,weatherlink.com 1.10,2013-01-08 07:16:00,
2013-01-07 23:31:00,39.5,36.0,30.18,NNE,26,0.0,1.0,87,0.00,,,0.01,0,weatherlink.com 1.10,2013-01-08 07:31:00,
2013-01-07 23:46:00,39.2,36.0,30.17,NNE,26,0.0,0.0,87,0.00,,,0.01,0,weatherlink.com 1.10,2013-01-08 07:46:00,